User: anonymous   Login
Location: Unspecified
(0.0000°N, 0.0000°E)
Time: 23:49:22
(UTC+00:00)
Language:

AMOS 1 - Orbit

View from above orbital plane
View from above orbital plane
View from above satellite
View from above satellite

Ground track
Ground track

The orbit data is extracted from the following two-line orbital elements,

1 23865U 96030B   16125.41916449 -.00000103 +00000-0 +00000-0 0  9990
2 23865 006.3605 056.8980 0008537 101.5694 149.2884 00.97117403072682
Epoch (UTC): 04 May 2016 10:03:35
Eccentricity: 0.0008537
inclination: 6.3605°
perigee height: 36657 km
apogee height: 36731 km
right ascension of ascending node: 56.8980°
argument of perigee: 101.5694°
revolutions per day: 0.97117403
mean anomaly at epoch: 149.2884°
orbit number at epoch: 7268

The dashed part of the orbit path shows where the satellite is in the earth's shadow,  

DLR